Regional Weather Roundup
Issued by NWS Boston, MA

Current Version | Previous Version | Text Only | Print | Product List | Glossary On
Versions: 1 2 3 4 5 6 7 8 9 10 11 12 13 14 15 16 17 18 19 20 21 22 23 24 25 26
000 ASUS41 KBOX 120810 RWRBOX REGIONAL WEATHER ROUNDUP NATIONAL WEATHER SERVICE TAUNTON MA 300 AM EST TUE DEC 12 2017 NOTE: "FAIR" INDICATES FEW OR NO CLOUDS BELOW 12,000 FEET WITH NO SIGNIFICANT WEATHER AND/OR OBSTRUCTIONS TO VISIBILITY. MAZALL-120900- EASTERN MASSACHUSETTS CITY SKY/WX TMP DP RH WIND PRES REMARKS BOSTON CLOUDY 36 25 64 CALM 29.96F BEVERLY CLOUDY 30 25 81 CALM 29.95F LAWRENCE CLOUDY 32 24 72 CALM 29.97F BEDFORD CLOUDY 28 24 85 CALM 29.94F BLUE HILL NOT AVBL NORWOOD CLOUDY 30 27 88 CALM 29.96F MARSHFIELD CLOUDY 32 28 86 CALM 29.95F PLYMOUTH CLOUDY 34 26 72 E3 29.95F TAUNTON CLOUDY 30 29 96 CALM 29.94F NEW BEDFORD CLOUDY 31 31 100 CALM 29.93F $$ MAZALL-120900- CAPE COD AND THE ISLANDS CITY SKY/WX TMP DP RH WIND PRES REMARKS FALMOUTH NOT AVBL HYANNIS CLOUDY 33 28 81 NE3 29.94F CHATHAM CLOUDY 38 30 73 CALM 29.96F PROVINCETOWN CLOUDY 35 24 64 E3 29.96F NANTUCKET CLOUDY 41 33 73 SE10 29.94F MARTHAS VNYRD CLOUDY N/A N/A N/A E6 29.93F $$ MAZALL-120900- CENTRAL AND WESTERN MASSACHUSETTS CITY SKY/WX TMP DP RH WIND PRES REMARKS WORCESTER FLURRIES 28 18 66 E3 29.89F FITCHBURG CLOUDY 31 24 75 NW3 29.94F ORANGE LGT SNOW 27 26 96 CALM 29.89F FOG SPRINGFIELD CLOUDY 32 22 66 E3 29.88F WESTFIELD CLOUDY 30 25 81 N6 29.90F WCI 24 NORTH ADAMS LGT SNOW 27 24 89 E7 29.86F VSB 1 WCI 19 PITTSFIELD CLOUDY 27 23 85 NE6 29.80F WCI 20 $$ RIZALL-120900- RHODE ISLAND CITY SKY/WX TMP DP RH WIND PRES REMARKS PROVIDENCE CLOUDY 34 27 75 NE3 29.94F NEWPORT CLOUDY 36 27 69 E5 29.92F BLOCK ISLAND N/A N/A N/A N/A MISG N/A SMITHFIELD CLOUDY 31 23 72 SE5 29.92F WCI 26 WESTERLY CLOUDY 34 27 75 N3 29.92F $$ CTZALL-120900- CONNECTICUT CITY SKY/WX TMP DP RH WIND PRES REMARKS BRADLEY INTL FLURRIES 30 24 78 NW3 29.90F HARTFORD CLOUDY 34 24 67 CALM 29.89F BRIDGEPORT CLOUDY 40 28 62 SE8 29.87F DANBURY CLOUDY 34 23 64 CALM 29.86F GROTON CLOUDY 36 25 64 N3 29.91F NEW HAVEN CLOUDY 41 28 60 SE8 29.88F CHESTER MOCLDY 34 23 64 MISG 29.88F MERIDEN CLOUDY 30 26 85 CALM 29.89F WILLIMANTIC CLOUDY 32 25 75 CALM 29.91F OXFORD CLOUDY 32 22 66 E7 29.85F WCI 26 $$ MEZ002-015-021-024-NHZ003-005-008-011-012-014-VTZ005-008-120900- NORTHERN NEW ENGLAND CITY SKY/WX TMP DP RH WIND PRES REMARKS PORTLAND ME CLOUDY 24 16 71 NE8 30.01F WCI 15 BANGOR ME PTCLDY 14 9 80 NE5 30.06F WCI 6 CONCORD NH LGT SNOW 27 22 81 CALM 29.94F MANCHESTER NH FLURRIES 30 21 69 CALM 29.94F NASHUA NH FLURRIES 29 24 82 W5 29.96F WCI 24 PORTSMOUTH NH FLURRIES 30 23 75 N5 29.94F WCI 25 JAFFREY NH LGT SNOW 27 24 89 VRB3 29.88F FOG KEENE NH FLURRIES 27 23 85 CALM 29.91F BURLINGTON VT CLOUDY 20 13 74 E3 29.84F MT. WASHINGTON SNOW 3 3 100 S38 N/A VSB 1/16WCI -24 $$ NYZ052-076-120900- EASTERN NEW YORK CITY SKY/WX TMP DP RH WIND PRES REMARKS ALBANY FLURRIES 30 25 81 SE8 29.83F WCI 22 NEW YORK CITY CLOUDY 39 29 67 E8 29.83F $$ ANZALL-120900- MARINE OBSERVATIONS STATION/POSITION TIME TEMP WIND PRES VSBY WAVE AIR SEA DIR/SP/G HT/PER (UTC) (F) (DEG/KT/KT) (MB) (MI) (FT/S) BOSTON BUOY 0650 40 48 120/ 8/ 10 1013.9 1/10 BUZZARDS BAY 0700 41 100/ 12/ 15 1014.5F NANTUCKET SOUND 0650 40 44 110/ 10/ 12 1014.8 1/ 3 MASS BAY-STELLWA 0704 38 47 130/ 8/ 10 1014.3F 2/11 ISLE OF SHOALS 0700 37 110/ 10/ 11 1014.6F S OF BLOCK IS 0743 53 N/A 4/ 9 $$ ......................KEY......................... SKY/WX - SKY CONDITION/PRESENT WEATHER TMP - TEMPERATURE IN FAHRENHEIT DWPT - DEWPOINT IN FAHRENHEIT RH - RELATIVE HUMIDITY IN PERCENT WIND - DIRECTION AND SPEED IN MPH PRES - MEAN SEA LEVEL PRESSURE IN INCHES OF HG WCI - WIND CHILL INDEX VSB - VISIBILITY IN MILES HX - HEAT INDEX TC - TEMPERATURE IN CELSIUS VRB - VARIABLE WIND DIRECTION N/A - NOT AVAILABLE

USA.gov is the U.S. government's official web portal to all federal, state and local government web resources and services.